Time,TemperatureF,DewpointF,PressureIn,WindDirection,WindDirectionDegrees,WindSpeedMPH,WindSpeedGustMPH,Humidity,HourlyPrecipIn,Conditions,Clouds,dailyrainin,SoftwareType,DateUTC
2013-07-15 00:03:00,68.8,68.0,30.25,WNW,289,0.0,1.0,98,0.00,,,0.00,weatherlink.com 1.10,2013-07-15 04:03:00,
2013-07-15 00:19:00,69.0,69.0,30.25,WNW,289,0.0,1.0,98,0.00,,,0.00,weatherlink.com 1.10,2013-07-15 04:19:00,
2013-07-15 00:33:00,69.0,69.0,30.25,WNW,290,0.0,1.0,98,0.00,,,0.00,weatherlink.com 1.10,2013-07-15 04:33:00,
2013-07-15 00:48:00,68.8,68.0,30.25,WNW,290,0.0,0.0,98,0.00,,,0.00,weatherlink.com 1.10,2013-07-15 04:48:00,
2013-07-15 01:03:00,68.8,68.0,30.26,WNW,289,0.0,0.0,98,0.00,,,0.00,weatherlink.com 1.10,2013-07-15 05:03:00,
2013-07-15 01:18:00,68.9,68.0,30.26,WNW,289,0.0,0.0,98,0.00,,,0.00,weatherlink.com 1.10,2013-07-15 05:18:00,
2013-07-15 01:33:00,68.9,68.0,30.26,WNW,290,0.0,0.0,98,0.00,,,0.00,weatherlink.com 1.10,2013-07-15 05:33:00,
2013-07-15 01:48:00,69.0,69.0,30.26,WNW,290,0.0,0.0,98,0.00,,,0.00,weatherlink.com 1.10,2013-07-15 05:48:00,
2013-07-15 02:03:00,69.2,69.0,30.26,WNW,289,0.0,0.0,98,0.00,,,0.00,weatherlink.com 1.10,2013-07-15 06:03:00,
2013-07-15 02:18:00,69.2,69.0,30.26,WNW,288,0.0,1.0,98,0.00,,,0.00,weatherlink.com 1.10,2013-07-15 06:18:00,
2013-07-15 02:33:00,69.0,69.0,30.26,WNW,288,0.0,0.0,98,0.00,,,0.00,weatherlink.com 1.10,2013-07-15 06:33:00,
2013-07-15 02:48:00,68.8,68.0,30.26,WNW,288,0.0,1.0,98,0.00,,,0.00,weatherlink.com 1.10,2013-07-15 06:48:00,
2013-07-15 03:03:00,68.6,68.0,30.26,WNW,289,0.0,0.0,98,0.00,,,0.00,weatherlink.com 1.10,2013-07-15 07:03:00,
2013-07-15 03:18:00,68.7,68.0,30.26,WNW,288,0.0,0.0,98,0.00,,,0.00,weatherlink.com 1.10,2013-07-15 07:18:00,
2013-07-15 03:33:00,68.5,68.0,30.25,WNW,290,0.0,0.0,98,0.00,,,0.00,weatherlink.com 1.10,2013-07-15 07:33:00,
2013-07-15 03:48:00,68.4,68.0,30.25,WNW,288,0.0,0.0,98,0.00,,,0.00,weatherlink.com 1.10,2013-07-15 07:48:00,
2013-07-15 04:03:00,68.1,68.0,30.26,WNW,288,0.0,0.0,98,0.00,,,0.00,weatherlink.com 1.10,2013-07-15 08:03:00,
2013-07-15 04:18:00,68.1,68.0,30.25,WNW,288,0.0,0.0,98,0.00,,,0.00,weatherlink.com 1.10,2013-07-15 08:18:00,
2013-07-15 04:33:00,68.2,68.0,30.25,WNW,290,0.0,0.0,98,0.00,,,0.00,weatherlink.com 1.10,2013-07-15 08:33:00,
2013-07-15 04:48:00,68.4,68.0,30.25,WNW,288,0.0,0.0,98,0.00,,,0.00,weatherlink.com 1.10,2013-07-15 08:48:00,
2013-07-15 05:03:00,68.3,68.0,30.26,WNW,288,0.0,0.0,98,0.00,,,0.00,weatherlink.com 1.10,2013-07-15 09:03:00,
2013-07-15 05:18:00,68.1,68.0,30.26,WNW,289,0.0,0.0,98,0.00,,,0.00,weatherlink.com 1.10,2013-07-15 09:18:00,
2013-07-15 05:33:00,68.0,68.0,30.26,WNW,289,0.0,0.0,98,0.00,,,0.00,weatherlink.com 1.10,2013-07-15 09:33:00,
2013-07-15 05:48:00,67.9,67.0,30.26,WNW,288,0.0,0.0,98,0.00,,,0.00,weatherlink.com 1.10,2013-07-15 09:48:00,
2013-07-15 06:03:00,67.8,67.0,30.27,WNW,289,0.0,0.0,98,0.00,,,0.00,weatherlink.com 1.10,2013-07-15 10:03:00,
2013-07-15 06:18:00,67.6,67.0,30.27,WNW,288,0.0,0.0,98,0.00,,,0.00,weatherlink.com 1.10,2013-07-15 10:18:00,
2013-07-15 06:33:00,68.0,68.0,30.27,WNW,289,0.0,1.0,98,0.00,,,0.00,weatherlink.com 1.10,2013-07-15 10:33:00,
2013-07-15 06:48:00,68.3,68.0,30.28,WNW,288,0.0,0.0,98,0.00,,,0.00,weatherlink.com 1.10,2013-07-15 10:48:00,
2013-07-15 07:04:00,68.4,68.0,30.28,WNW,288,0.0,0.0,98,0.00,,,0.00,weatherlink.com 1.10,2013-07-15 11:04:00,
2013-07-15 07:19:00,68.5,68.0,30.28,WNW,288,0.0,0.0,98,0.00,,,0.00,weatherlink.com 1.10,2013-07-15 11:19:00,
2013-07-15 07:34:00,68.9,68.0,30.29,WNW,290,0.0,0.0,98,0.00,,,0.00,weatherlink.com 1.10,2013-07-15 11:34:00,
2013-07-15 07:49:00,69.5,69.0,30.29,WNW,288,0.0,0.0,98,0.00,,,0.00,weatherlink.com 1.10,2013-07-15 11:49:00,
2013-07-15 08:04:00,70.1,70.0,30.29,WNW,288,0.0,2.0,98,0.00,,,0.00,weatherlink.com 1.10,2013-07-15 12:04:00,
2013-07-15 08:19:00,70.4,70.0,30.29,WNW,287,0.0,1.0,98,0.00,,,0.00,weatherlink.com 1.10,2013-07-15 12:19:00,
2013-07-15 08:34:00,71.2,71.0,30.29,WNW,287,0.0,0.0,99,0.00,,,0.00,weatherlink.com 1.10,2013-07-15 12:34:00,
2013-07-15 08:49:00,71.8,71.0,30.30,NW,312,0.0,3.0,98,0.00,,,0.00,weatherlink.com 1.10,2013-07-15 12:49:00,
2013-07-15 09:04:00,72.2,72.0,30.30,West,276,0.0,2.0,98,0.00,,,0.00,weatherlink.com 1.10,2013-07-15 13:04:00,
2013-07-15 09:19:00,72.5,72.0,30.30,WNW,298,1.0,3.0,98,0.00,,,0.00,weatherlink.com 1.10,2013-07-15 13:19:00,
2013-07-15 09:34:00,73.1,72.0,30.30,West,280,0.0,1.0,97,0.00,,,0.00,weatherlink.com 1.10,2013-07-15 13:34:00,
2013-07-15 09:49:00,73.6,72.0,30.30,WNW,289,0.0,1.0,96,0.00,,,0.00,weatherlink.com 1.10,2013-07-15 13:49:00,
2013-07-15 10:04:00,73.8,72.0,30.30,WNW,290,1.0,2.0,95,0.00,,,0.00,weatherlink.com 1.10,2013-07-15 14:04:00,
2013-07-15 10:19:00,74.2,72.0,30.30,West,280,0.0,4.0,92,0.00,,,0.00,weatherlink.com 1.10,2013-07-15 14:19:00,
2013-07-15 10:34:00,75.2,72.0,30.30,West,264,0.0,8.0,88,0.00,,,0.00,weatherlink.com 1.10,2013-07-15 14:34:00,
2013-07-15 10:49:00,75.3,72.0,30.30,WNW,301,0.0,3.0,89,0.00,,,0.00,weatherlink.com 1.10,2013-07-15 14:49:00,
2013-07-15 11:04:00,76.1,73.0,30.30,WSW,241,0.0,3.0,89,0.00,,,0.00,weatherlink.com 1.10,2013-07-15 15:04:00,
2013-07-15 11:19:00,77.0,73.0,30.30,WSW,257,0.0,2.0,87,0.00,,,0.00,weatherlink.com 1.10,2013-07-15 15:19:00,
2013-07-15 11:49:00,79.0,74.0,30.30,SSE,149,1.0,2.0,85,0.00,,,0.00,weatherlink.com 1.10,2013-07-15 15:49:00,
2013-07-15 12:04:00,78.6,73.0,30.30,West,262,0.0,1.0,84,0.00,,,0.00,weatherlink.com 1.10,2013-07-15 16:04:00,
2013-07-15 12:34:00,80.9,75.0,30.30,West,279,0.0,4.0,81,0.00,,,0.00,weatherlink.com 1.10,2013-07-15 16:34:00,
2013-07-15 12:49:00,80.6,75.0,30.30,WNW,291,3.0,3.0,82,0.00,,,0.00,weatherlink.com 1.10,2013-07-15 16:49:00,
2013-07-15 13:04:00,80.9,75.0,30.29,WNW,300,0.0,2.0,81,0.00,,,0.00,weatherlink.com 1.10,2013-07-15 17:04:00,
2013-07-15 13:19:00,81.5,75.0,30.29,WNW,288,0.0,6.0,81,0.00,,,0.00,weatherlink.com 1.10,2013-07-15 17:19:00,
2013-07-15 13:34:00,82.1,75.0,30.28,SSE,155,0.0,5.0,80,0.00,,,0.00,weatherlink.com 1.10,2013-07-15 17:34:00,
2013-07-15 13:49:00,82.2,76.0,30.28,WSW,257,2.0,4.0,80,0.00,,,0.00,weatherlink.com 1.10,2013-07-15 17:49:00,
2013-07-15 14:19:00,82.8,75.0,30.27,West,273,1.0,4.0,76,0.00,,,0.00,weatherlink.com 1.10,2013-07-15 18:19:00,
2013-07-15 15:05:00,85.5,74.0,30.26,NW,318,2.0,4.0,69,0.00,,,0.00,weatherlink.com 1.10,2013-07-15 19:05:00,
2013-07-15 15:35:00,85.4,72.0,30.25,NW,314,1.0,5.0,65,0.00,,,0.00,weatherlink.com 1.10,2013-07-15 19:35:00,
2013-07-15 15:50:00,85.3,72.0,30.24,West,274,1.0,5.0,65,0.00,,,0.00,weatherlink.com 1.10,2013-07-15 19:50:00,
2013-07-15 16:20:00,86.0,73.0,30.24,WNW,294,2.0,4.0,66,0.00,,,0.00,weatherlink.com 1.10,2013-07-15 20:20:00,
2013-07-15 16:35:00,85.3,75.0,30.23,ESE,104,1.0,3.0,70,0.00,,,0.00,weatherlink.com 1.10,2013-07-15 20:35:00,
2013-07-15 16:50:00,85.4,74.0,30.22,SSW,195,0.0,6.0,68,0.00,,,0.00,weatherlink.com 1.10,2013-07-15 20:50:00,
2013-07-15 17:05:00,85.3,74.0,30.22,WSW,253,1.0,4.0,69,0.00,,,0.00,weatherlink.com 1.10,2013-07-15 21:05:00,
2013-07-15 17:20:00,84.3,73.0,30.22,West,277,2.0,4.0,68,0.00,,,0.00,weatherlink.com 1.10,2013-07-15 21:20:00,
2013-07-15 17:35:00,83.6,73.0,30.23,WSW,257,1.0,1.0,71,0.00,,,0.00,weatherlink.com 1.10,2013-07-15 21:35:00,
2013-07-15 17:50:00,83.0,73.0,30.22,West,277,0.0,1.0,71,0.00,,,0.00,weatherlink.com 1.10,2013-07-15 21:50:00,
2013-07-15 18:05:00,83.0,74.0,30.23,West,263,1.0,3.0,73,0.00,,,0.00,weatherlink.com 1.10,2013-07-15 22:05:00,
2013-07-15 18:20:00,83.0,72.0,30.22,WNW,291,0.0,3.0,69,0.00,,,0.00,weatherlink.com 1.10,2013-07-15 22:20:00,
2013-07-15 18:35:00,82.7,73.0,30.22,West,277,0.0,5.0,72,0.00,,,0.00,weatherlink.com 1.10,2013-07-15 22:35:00,
2013-07-15 18:50:00,82.5,74.0,30.23,SSW,201,0.0,3.0,75,0.00,,,0.00,weatherlink.com 1.10,2013-07-15 22:50:00,
2013-07-15 19:05:00,82.6,74.0,30.23,WSW,250,1.0,3.0,75,0.00,,,0.00,weatherlink.com 1.10,2013-07-15 23:05:00,
2013-07-15 19:20:00,82.2,74.0,30.23,WSW,250,0.0,1.0,75,0.00,,,0.00,weatherlink.com 1.10,2013-07-15 23:20:00,
2013-07-15 19:35:00,81.3,73.0,30.23,WSW,250,0.0,0.0,77,0.00,,,0.00,weatherlink.com 1.10,2013-07-15 23:35:00,
2013-07-15 19:50:00,80.7,74.0,30.23,WSW,250,0.0,0.0,80,0.00,,,0.00,weatherlink.com 1.10,2013-07-15 23:50:00,
2013-07-15 20:20:00,79.1,73.0,30.23,WSW,250,0.0,0.0,82,0.00,,,0.00,weatherlink.com 1.10,2013-07-16 00:20:00,
2013-07-15 20:50:00,76.2,72.0,30.23,WSW,250,0.0,0.0,86,0.00,,,0.00,weatherlink.com 1.10,2013-07-16 00:50:00,
2013-07-15 21:05:00,75.2,72.0,30.23,WSW,250,0.0,0.0,89,0.00,,,0.00,weatherlink.com 1.10,2013-07-16 01:05:00,
2013-07-15 21:20:00,74.3,71.0,30.23,WSW,250,0.0,0.0,90,0.00,,,0.00,weatherlink.com 1.10,2013-07-16 01:20:00,
2013-07-15 21:35:00,73.6,71.0,30.24,WSW,250,1.0,1.0,92,0.00,,,0.00,weatherlink.com 1.10,2013-07-16 01:35:00,
2013-07-15 21:50:00,73.4,71.0,30.24,SSW,197,0.0,0.0,93,0.00,,,0.00,weatherlink.com 1.10,2013-07-16 01:50:00,
2013-07-15 22:05:00,73.6,72.0,30.25,SSW,195,0.0,0.0,93,0.00,,,0.00,weatherlink.com 1.10,2013-07-16 02:05:00,
2013-07-15 22:20:00,74.0,72.0,30.26,SSW,197,0.0,0.0,93,0.01,,,0.01,weatherlink.com 1.10,2013-07-16 02:20:00,
2013-07-15 22:35:00,73.8,72.0,30.27,SSW,195,0.0,1.0,94,0.03,,,0.03,weatherlink.com 1.10,2013-07-16 02:35:00,
2013-07-15 22:50:00,73.5,72.0,30.27,SSW,195,0.0,1.0,95,0.03,,,0.03,weatherlink.com 1.10,2013-07-16 02:50:00,
2013-07-15 23:05:00,73.2,72.0,30.27,SSW,195,0.0,0.0,95,0.03,,,0.03,weatherlink.com 1.10,2013-07-16 03:05:00,
2013-07-15 23:35:00,72.6,71.0,30.27,SSW,197,0.0,1.0,96,0.00,,,0.03,weatherlink.com 1.10,2013-07-16 03:35:00,
2013-07-15 23:50:00,72.5,71.0,30.28,SSW,197,0.0,0.0,96,0.00,,,0.03,weatherlink.com 1.10,2013-07-16 03:50:00,